Regional Weather Roundup
Issued by NWS Grand Forks, ND

Home | Current Version | Previous Version | Text Only | Print | Product List | Glossary Off
Versions: 1 2 3 4 5 6 7 8 9 10 11 12 13 14 15 16 17 18 19 20 21 22 23 24 25 26 27 28 29 30 31 32 33 34 35 36 37 38 39 40 41 42 43 44 45 46 47 48 49 50

673
ASUS43 KFGF 251231
RWRFGF
PRAIRIE TO PINES  WEATHER ROUNDUP
NATIONAL WEATHER SERVICE EASTERN NORTH DAKOTA/GRAND FORKS ND
700 AM CDT TUE JUL 25 2017

 **SATELLITE DATA USED TO AUGMENT SKY COVER AT AUTOMATED STATIONS**
 *****  WEATHER ACROSS EASTERN NORTH DAKOTA  *****

CITY           SKY/WX    TMP DP  RH WIND       PRES   REMARKS
GRAND FORKS    FAIR      65  65 100 SE6       29.86S
6HR MIN TEMP:  64; 6HR MAX TEMP:  68;

GRAND FRKS AFB FAIR      65  65 100 S10       29.85F
DEVILS LAKE    FAIR      66  66 100 W5        29.89R FOG
6HR MIN TEMP:  67; 6HR MAX TEMP:  71;

FARGO          FAIR      69  64  84 SE10      29.86R
WAHPETON ARPT  FAIR      66  63  88 SE9       29.86R
$$

 ***** WEATHER ACROSS CENTRAL AND WESTERN NORTH DAKOTA  *****

CITY           SKY/WX    TMP DP  RH WIND       PRES   REMARKS
BISMARCK       MOCLDY    69  66  90 NW6       29.92R
6HR MIN TEMP:  64; 6HR MAX TEMP:  72;

MINOT          FAIR      67  51  56 W10       29.90R
6HR MIN TEMP:  63; 6HR MAX TEMP:  70;

JAMESTOWN      FAIR      65  63  93 N5        29.89R
6HR MIN TEMP:  62; 6HR MAX TEMP:  68;

MINOT AFB      MOCLDY    63  51  64 W6        29.90R
GARRISON         N/A     63  54  72 N6        29.90R
WILLISTON      FAIR      63  44  50 N9        29.98S
6HR MIN TEMP:  63; 6HR MAX TEMP:  70; 6HR PCP: TRACE;

DICKINSON      FAIR      64  51  62 NE9       29.94F
6HR MIN TEMP:  63; 6HR MAX TEMP:  70;

HETTINGER      LGT RAIN  63  57  81 N18       29.95R
6HR MIN TEMP:  65; 6HR MAX TEMP:  71; 6HR PCP: TRACE;

$$

 *****  OTHER AIRPORT OBSERVATIONS IN OUR AREA  *****

CITY           SKY/WX    TMP DP  RH WIND       PRES   REMARKS
WALHALLA       NOT AVBL
GRAFTON AIRPOR FAIR      66  66 100 S9        29.87R
VALLEY CITY AR FAIR      64  64 100 NW5       29.91R FOG
CANDO          NOT AVBL
CAVALIER APRT  FAIR      66  66 100 S5        29.84R
GWINNER        SUNNY     66  64  94 CALM      29.87R
SHEYENNE NWR     N/A     64  64 100 E3        29.95S
ROLLA            N/A     59  59 100 SW7       29.89R
 ***** THE ABOVE OBSERVATIONS ARE NON NWS ARE NOT QUALITY
       CONTROLLED AND MAY MIS-REPORT RAIN FOR SNOW...
$$

  *****  WEATHER ACROSS NORTHERN MINNESOTA  *****

CITY           SKY/WX    TMP DP  RH WIND       PRES   REMARKS
FLAG ISLAND    FAIR      68  64  88 S9G16     29.88R
WARROAD        FAIR      66  63  88 S6        29.89S
ROSEAU         FAIR      64  61  88 S10       29.87S
HALLOCK        MOCLDY    66  64  94 S8        29.85R
THF RVR FALLS  FAIR      63  61  93 SE8       29.90R
6HR MIN TEMP:  62; 6HR MAX TEMP:  65;

BAUDETTE       FAIR      62  61  96 S5        29.91R
6HR MIN TEMP:  60; 6HR MAX TEMP:  64;

WASKISH        FAIR      64  63  94 S5        29.93S
CROOKSTON      FAIR      64  63  94 CALM      29.88F
STEPHEN NDAWN    N/A     66  63  88 S5          N/A
GREENBUSH NDAW   N/A     64  63  94 SW6         N/A
$$
  *****  WEATHER ACROSS CENTRAL AND WEST MINNESOTA  *****

CITY           SKY/WX    TMP DP  RH WIND       PRES   REMARKS
FOSSTON        MOCLDY    64  63  94 SE7       29.91S
BEMIDJI        FAIR      64  61  91 SE8       29.94R
PARK RAPIDS    FAIR      66  62  87 SE16      29.93F
6HR MIN TEMP:  64; 6HR MAX TEMP:  66;

ELBOW LAKE     FAIR      67  64  89 SE14G22   29.89S
6HR MIN TEMP:  66; 6HR MAX TEMP:  67;

WADENA         FAIR      66  64  94 SE9       29.92F
DETROIT LAKES  FAIR      66  63  88 SE9       29.92S
MOORHEAD       FAIR      70  64  83 SE9       29.89R
FERGUS FALLS   FAIR      70  63  78 SE14G21   29.87S
MORRIS MN      FAIR      68  64  88 SE14      29.89S
STAPLES        FAIR      64  63  94 SE8       29.93F
$$
  *****  WEATHER ELSEWHERE ACROSS MINNESOTA  *****

CITY           SKY/WX    TMP DP  RH WIND       PRES   REMARKS
DULUTH         FAIR      59  58  96 SE7       30.04S
6HR MIN TEMP:  54; 6HR MAX TEMP:  59;

INTRNTL FALLS  FAIR      62  58  86 SE7       29.94F
6HR MIN TEMP:  57; 6HR MAX TEMP:  62;

ELY            FAIR      61  57  88 S5        30.03F
CLOQUET        FAIR      61  57  88 SE3       30.04S
WHEATON        FAIR      66  63  88 SE14      29.87F
BRAINERD       FAIR      65  62  90 SE10      29.97S
6HR MIN TEMP:  61; 6HR MAX TEMP:  65;

HIBBING        FAIR      56  56 100 SE5       30.01S
6HR MIN TEMP:  49; 6HR MAX TEMP:  56;

ALEXANDRIA     FAIR      67  64  90 SE12      29.94S
6HR MIN TEMP:  66; 6HR MAX TEMP:  68;

SAINT CLOUD    MOCLDY    66  64  93 SE5       29.99R
6HR MIN TEMP:  65; 6HR MAX TEMP:  68; 6HR PCP:  0.02;

MINNEAPOLIS    CLOUDY    68  61  78 S13       30.04S
6HR MIN TEMP:  67; 6HR MAX TEMP:  69; 6HR PCP: TRACE;

$$

  *****  WEATHER ACROSS SOUTH DAKOTA  *****

CITY           SKY/WX    TMP DP  RH WIND       PRES   REMARKS
SIOUX FALLS    FAIR      71  67  87 S12       29.92R
6HR MIN TEMP:  70; 6HR MAX TEMP:  73;

BROOKINGS      FAIR      68  65  90 S15       29.90S
WATERTOWN      FAIR      67  65  93 S12       29.87R
6HR MIN TEMP:  66; 6HR MAX TEMP:  70;

HURON          FAIR      71  68  90 MISG      29.82R
6HR MIN TEMP:  70; 6HR MAX TEMP:  73;

SISSETON         N/A     66  65  96 SE7       29.85R
ABERDEEN       FAIR      68  65  90 CALM      29.84R
6HR MIN TEMP:  66; 6HR MAX TEMP:  72;

MITCHELL       FAIR      73  69  87 SE10      29.84S
PIERRE         FAIR      65  61  87 CALM      29.81R
6HR MIN TEMP:  64; 6HR MAX TEMP:  79;

MOBRIDGE       FAIR      68  66  93 N7        29.84R
RAPID CITY     FAIR      68  61  78 N9        29.91R
6HR MIN TEMP:  63; 6HR MAX TEMP:  76;

$$

  *****  SOME WEATHER IN NEARBY STATES *****

CITY           SKY/WX    TMP DP  RH WIND       PRES   REMARKS
GLASGOW MT     CLOUDY    58  46  64 N15       30.03R
6HR MIN TEMP:  57; 6HR MAX TEMP:  69; 6HR PCP:  0.16;

GREAT FALLS MT FAIR      47  37  68 NW6       30.17R
6HR MIN TEMP:  47; 6HR MAX TEMP:  67;

CHEYENNE WY    FAIR      64  42  44 W10       30.11S
6HR MIN TEMP:  60; 6HR MAX TEMP:  66;

SCOTTSBLUFF NE FAIR      69  58  67 NE5       29.95R
6HR MIN TEMP:  69; 6HR MAX TEMP:  83;

OMAHA NE       FAIR      74  65  73 S16       30.00R
6HR MIN TEMP:  74; 6HR MAX TEMP:  76;

DES MOINES IA  FAIR      68  65  90 SE6       30.08R
6HR MIN TEMP:  67; 6HR MAX TEMP:  71;

DAVENPORT IA   FAIR      62  60  93 SE7       30.16R
6HR MIN TEMP:  59; 6HR MAX TEMP:  63;

CHICAGO IL     FAIR      66  62  87 CALM      30.18R
6HR MIN TEMP:  61; 6HR MAX TEMP:  66;

EAU CLAIRE WI  FAIR      64  59  83 S7        30.11R
6HR MIN TEMP:  61; 6HR MAX TEMP:  64;

LA CROSSE WI   FAIR      66  59  78 S8        30.13R
6HR MIN TEMP:  63; 6HR MAX TEMP:  66;

$$

  *****  SOME NATIONAL WEATHER *****

CITY           SKY/WX    TMP DP  RH WIND       PRES   REMARKS
LA GUARDIA NY  CLOUDY    64  61  90 N7        30.04R
6HR MIN TEMP:  62; 6HR MAX TEMP:  65;

RALEIGH NC     PTSUNNY   78  76  93 CALM      30.06R
6HR MIN TEMP:  75; 6HR MAX TEMP:  79;

ATLANTA GA     PTSUNNY   75  71  87 W5        30.10R
6HR MIN TEMP:  73; 6HR MAX TEMP:  75;

NEW ORLEANS LA MOCLDY    77  76  96 SW7       30.11R FOG
6HR MIN TEMP:  76; 6HR MAX TEMP:  79;

OKLAHOMA CITY  FAIR      73  71  93 S7        30.06R
6HR MIN TEMP:  72; 6HR MAX TEMP:  76;

ALBUQUERQUE NM MOCLDY    71  58  63 SE7       30.20R
6HR MIN TEMP:  71; 6HR MAX TEMP:  78;

SALT LAKE CITY MOCLDY    72  60  66 SE7       30.07S
6HR MIN TEMP:  72; 6HR MAX TEMP:  80; 6HR PCP: TRACE;

LOS ANGELES CA CLOUDY    68  65  90 W6        29.94R
6HR MIN TEMP:  68; 6HR M



USA.gov is the U.S. government's official web portal to all federal, state and local government web resources and services.